Wind_Speed
44 46 29 32 33 29 32 43 56 55 55 62 69 70 65 62 63 67 76 92 85 75 67 59 58 55 55 53 54 39 41 40 39 46 50 51 45 43 45 44 42 45 49
45 42 25 29 28 24 22 28 38 43 47 54 57 63 65 62 57 58 62 80 77 73 62 59 51 52 47 57 60 51 57 47 39 32 41 51 55 53 52 47 50 52 50
43 43 33 25 26 23 17 13 21 32 37 47 46 54 59 58 56 53 52 68 86 70 66 49 48 40 51 59 55 51 54 39 42 51 56 42 42 41 48 51 56 58 60
40 39 33 28 23 20 18 6 14 23 30 37 38 41 44 47 50 50 46 69 72 60 66 42 43 47 53 56 56 53 53 45 45 45 51 48 48 48 53 48 48 50 51
37 37 31 31 24 16 11 6 7 18 26 30 29 29 30 32 41 48 43 61 80 60 42 42 49 46 53 43 43 48 51 55 36 37 37 34 32 35 37 41 43 46 48
31 35 35 32 26 10 10 13 14 19 25 28 24 23 26 33 40 37 40 55 73 46 38 39 39 49 37 39 40 20 25 18 29 30 28 33 32 33 37 40 42 43 47
31 32 32 34 28 24 14 16 13 11 14 24 26 25 22 26 35 32 30 49 69 56 33 34 34 38 28 11 13 13 11 22 20 24 28 32 36 36 38 40 40 36 35
26 27 29 31 27 37 28 23 26 21 13 21 22 19 19 27 40 46 45 56 60 47 51 47 31 39 20 20 19 18 23 24 27 28 31 31 31 32 32 30 30 33 36
21 23 27 26 27 24 24 20 19 20 16 33 17 23 19 29 28 20 56 47 16 5 3 9 11 8 10 13 15 21 26 26 23 23 23 25 26 27 29 31 32 34 38
18 22 17 25 23 23 34 21 14 20 28 22 17 17 12 11 35 26 18 9 11 7 22 13 14 21 18 21 20 20 20 21 23 22 22 24 27 30 32 33 34 35 38
17 16 14 14 20 21 23 23 20 24 16 18 18 18 30 24 23 16 8 7 10 14 12 14 15 11 12 13 17 16 19 20 19 21 26 28 29 29 29 32 36 40 44
22 16 14 12 9 10 13 14 16 18 19 20 24 22 20 18 23 20 14 11 15 14 10 12 15 15 13 14 13 14 16 18 18 19 21 25 28 32 36 40 43 46 49
20 17 14 10 11 12 12 15 16 14 14 14 15 20 24 22 17 14 11 12 11 5 3 6 7 7 8 8 8 8 11 16 21 23 27 30 34 38 42 45 49 52 55
19 17 16 16 15 13 12 13 14 14 14 11 13 16 14 12 11 8 7 7 6 4 2 4 4 5 6 10 14 18 22 26 28 32 36 41 43 46 48 51 53 56 59
13 14 13 13 15 16 16 17 17 17 19 18 17 15 14 12 10 7 5 5 5 3 3 4 7 11 15 18 21 25 29 33 37 40 44 47 49 50 52 55 57 60 62
10 9 10 13 14 15 17 19 22 23 22 21 20 19 16 14 12 10 8 6 5 6 9 12 15 18 21 24 28 32 36 39 41 44 48 50 51 53 55 58 61 63 66
18 21 22 21 20 19 18 18 18 18 17 16 15 15 14 13 12 11 12 13 14 15 17 19 22 25 28 31 35 39 43 46 50 53 55 57 59 60 61 62 65 67 70
15 15 15 15 14 14 14 13 13 13 13 14 14 14 14 15 15 16 17 19 21 24 27 29 32 36 39 42 45 49 52 54 56 58 60 62 64 65 66 68 70 72 74
11 11 11 11 10 10 10 10 11 12 13 15 16 17 19 19 21 22 24 26 29 32 35 38 42 45 48 51 54 55 57 59 60 63 66 67 69 70 71 73 75 77 78
6 7 8 9 9 10 12 13 13 15 16 18 21 23 25 27 29 31 33 36 38 41 44 47 49 52 55 57 60 62 62 63 65 67 68 69 70 73 75 77 79 81 83
9 10 11 12 13 14 17 19 21 22 25 27 29 32 35 37 39 42 45 47 50 52 54 55 58 59 61 62 63 62 61 63 66 70 71 72 74 77 79 80 81 82 83
20 21 22 23 24 25 26 28 30 32 35 38 40 42 44 46 48 50 52 55 56 57 58 60 60 59 60 61 62 65 67 69 73 74 75 76 78 79 81 82 83 83 84
29 31 32 33 34 37 37 39 42 45 47 48 50 52 54 56 57 58 59 59 58 57 57 58 59 61 64 66 67 69 73 77 77 75 75 77 80 82 82 82 82 84 85
37 39 41 42 43 44 45 47 51 53 54 55 57 59 61 60 58 57 57 57 59 62 63 65 66 67 67 69 73 77 78 76 75 76 78 80 81 82 82 83 84 85 85
45 47 49 52 52 53 54 56 57 58 59 60 60 58 57 56 57 58 59 60 61 63 65 68 69 70 72 75 78 79 77 76 77 79 81 81 82 83 84 85 85 86 88
48 49 51 52 52 54 55 55 56 57 58 58 59 59 60 60 62 63 64 66 67 69 70 71 71 74 77 80 80 78 78 79 80 80 81 82 83 84 85 86 89 89 87
Wind_Direction
334 326 316 323 316 295 275 255 241 237 234 229 225 223 225 227 228 227 227 223 226 228 232 240 241 249 251 255 253 254 256 253 261 258 259 260 262 267 264 265 268 269 273
340 344 330 337 336 323 296 260 243 229 229 224 223 221 222 225 228 229 228 220 222 229 230 241 233 237 254 260 261 248 252 253 261 261 266 263 252 263 265 267 270 273 279
351 352 354 341 352 352 337 272 233 216 221 216 219 220 222 224 225 226 229 219 220 224 228 234 226 241 252 264 249 241 253 242 248 260 264 251 261 260 270 272 270 273 272
359 3 3 358 353 8 7 341 209 206 209 209 211 214 219 223 223 220 226 218 208 214 225 229 238 234 252 253 246 251 246 241 249 251 254 252 254 264 271 262 264 265 270
10 10 7 3 1 18 44 72 178 193 195 195 202 208 212 216 220 215 220 222 211 213 227 254 242 244 239 246 254 245 246 248 241 248 248 247 255 258 258 266 268 266 268
5 359 19 14 17 8 13 114 142 171 182 196 205 209 212 220 218 210 228 224 212 203 222 227 227 239 233 245 252 221 222 241 245 234 272 275 276 269 263 263 265 266 268
17 14 9 12 32 47 77 83 91 126 178 197 207 216 209 198 208 225 223 213 206 211 217 237 240 224 222 250 270 269 310 315 285 272 265 263 270 271 270 267 269 273 277
16 21 18 13 54 68 90 69 83 73 81 187 178 170 162 157 175 177 208 188 201 221 237 232 232 229 262 304 317 292 307 279 263 269 267 269 270 270 272 273 276 279 281
9 1 17 30 38 57 77 82 73 74 87 129 123 152 171 180 159 156 199 198 180 246 358 268 276 290 290 252 259 264 263 258 258 263 271 273 270 268 273 279 283 286 287
22 19 28 40 49 49 60 63 74 85 106 111 110 141 167 187 219 209 172 296 240 242 209 229 257 233 242 246 248 250 256 266 268 269 267 271 279 286 288 288 290 288 287
2 20 39 47 52 61 68 70 70 81 114 130 140 134 136 139 135 172 172 181 206 222 229 242 219 219 226 253 265 264 261 259 268 278 284 288 289 291 293 291 291 293 294
11 18 35 44 45 66 61 53 61 82 105 96 122 125 124 133 148 153 151 171 200 209 214 227 227 235 243 247 248 252 266 280 287 289 294 297 298 297 297 295 296 296 296
19 13 34 51 54 55 67 69 69 78 100 118 118 127 136 137 134 128 143 181 184 205 196 193 204 222 255 277 281 281 301 307 309 304 305 302 301 301 300 299 297 296 296
26 35 36 46 57 66 71 78 84 95 102 112 113 114 108 104 112 124 134 141 143 136 216 271 320 332 327 327 317 315 310 307 308 310 310 308 306 304 301 299 298 298 298
23 41 53 52 51 57 64 70 67 68 76 82 85 84 82 81 83 83 72 44 55 47 13 349 325 325 321 315 312 309 307 306 308 307 306 306 304 303 303 302 301 301 300
18 37 59 68 69 70 69 71 74 75 77 78 80 79 77 77 77 73 66 48 16 349 334 325 320 312 307 308 309 308 308 308 305 303 303 304 304 303 302 302 302 302 302
65 70 71 62 58 60 62 62 59 59 58 55 52 47 41 35 25 13 2 350 340 331 322 315 312 312 310 308 306 307 308 307 307 308 307 306 304 304 304 303 304 305 304
67 65 63 62 62 58 54 50 45 39 33 24 16 8 0 353 346 340 335 329 323 320 317 315 312 309 308 308 308 306 305 303 303 304 304 304 303 302 302 303 304 305 306
54 49 48 43 38 30 20 10 5 2 357 352 345 340 335 330 325 320 317 316 315 314 311 309 308 307 306 304 303 303 304 305 305 304 303 302 302 302 302 302 302 304 304
8 3 359 350 341 336 329 327 327 329 327 325 324 321 318 315 313 311 310 308 308 307 306 305 304 304 303 303 303 303 304 304 304 303 301 300 299 299 300 301 303 303 304
276 277 285 292 295 296 296 296 301 303 303 304 307 307 307 306 306 306 308 309 307 306 305 303 300 300 300 301 301 301 301 301 301 301 299 299 298 299 300 302 303 304 304
287 285 286 285 286 285 285 288 289 290 292 297 299 302 304 304 303 302 301 301 300 301 301 301 301 302 301 301 301 301 301 301 302 301 299 298 298 299 301 302 302 302 302
293 292 290 288 287 289 287 291 294 295 295 296 298 299 299 298 298 299 300 300 300 301 301 301 300 299 299 300 301 301 301 302 300 298 297 298 299 300 301 301 301 301 301
282 282 282 282 283 284 284 284 286 288 289 289 289 291 293 294 296 297 298 299 300 300 300 300 300 300 300 300 301 301 301 300 299 298 298 299 299 300 300 300 299 299 300
281 282 283 283 284 284 284 285 286 286 286 287 289 290 291 292 294 295 296 296 296 297 298 299 298 298 297 298 298 298 298 297 297 298 298 298 298 299 298 298 298 299 299
286 286 285 286 287 287 286 286 287 289 289 289 289 290 291 292 293 293 294 295 296 296 297 297 296 297 296 296 297 297 297 297 298 297 297 298 297 297 297 298 299 300 299
Height
5442 5425 5412 5402 5390 5380 5375 5375 5381 5392 5404 5415 5430 5447 5462 5475 5486 5499 5513 5528 5541 5556 5570 5577 5585 5586 5591 5593 5597 5596 5599 5602 5603 5606 5610 5611 5613 5612 5611 5611 5610 5610 5609
5438 5420 5406 5396 5384 5375 5368 5365 5370 5380 5393 5407 5421 5436 5450 5464 5476 5490 5502 5517 5532 5547 5559 5566 5569 5576 5577 5579 5582 5583 5588 5589 5591 5594 5598 5598 5600 5600 5599 5599 5599 5598 5597
5438 5422 5405 5395 5384 5374 5366 5363 5367 5377 5388 5402 5415 5429 5443 5455 5467 5479 5493 5503 5522 5540 5549 5550 5556 5557 5564 5566 5568 5570 5573 5574 5578 5581 5586 5587 5586 5587 5586 5585 5586 5585 5585
5438 5423 5409 5397 5388 5378 5372 5368 5371 5379 5390 5402 5414 5426 5438 5449 5460 5471 5483 5493 5510 5524 5530 5539 5541 5547 5552 5555 5556 5559 5561 5562 5565 5568 5571 5573 5574 5573 5573 5573 5573 5574 5571
5441 5428 5415 5402 5392 5386 5381 5379 5380 5386 5395 5406 5417 5426 5435 5444 5455 5465 5476 5485 5498 5515 5527 5530 5537 5539 5543 5539 5545 5546 5549 5551 5555 5558 5561 5562 5563 5563 5564 5564 5563 5560 5559
5445 5434 5422 5410 5397 5390 5389 5388 5390 5395 5401 5410 5418 5424 5432 5441 5449 5460 5468 5475 5490 5510 5518 5522 5525 5526 5530 5533 5536 5536 5540 5542 5545 5549 5552 5553 5553 5552 5552 5551 5550 5550 5548
5451 5440 5431 5421 5409 5398 5397 5399 5400 5403 5407 5411 5418 5424 5430 5437 5446 5454 5461 5471 5491 5502 5510 5515 5518 5520 5523 5524 5528 5529 5531 5534 5536 5539 5541 5543 5543 5543 5542 5541 5540 5539 5536
5456 5447 5439 5431 5422 5413 5410 5408 5407 5409 5407 5411 5419 5425 5430 5436 5443 5453 5461 5470 5490 5499 5502 5507 5511 5513 5515 5517 5521 5523 5526 5528 5529 5531 5532 5532 5532 5532 5532 5531 5530 5527 5526
5461 5454 5447 5440 5432 5425 5420 5417 5415 5412 5411 5416 5424 5430 5436 5443 5449 5453 5464 5474 5486 5490 5494 5499 5504 5508 5510 5513 5515 5517 5520 5521 5522 5523 5523 5523 5522 5523 5522 5520 5519 5517 5516
5466 5461 5454 5447 5441 5435 5430 5427 5423 5424 5423 5426 5430 5434 5442 5447 5447 5456 5466 5473 5482 5488 5494 5496 5504 5505 5506 5507 5509 5513 5514 5515 5515 5514 5515 5515 5515 5514 5513 5511 5509 5508 5507
5469 5465 5460 5454 5450 5445 5442 5438 5437 5435 5434 5435 5438 5439 5442 5450 5454 5463 5469 5478 5485 5487 5492 5495 5499 5499 5501 5503 5505 5505 5507 5508 5508 5509 5509 5508 5508 5505 5503 5502 5502 5499 5495
5473 5468 5464 5461 5458 5455 5452 5451 5449 5446 5447 5446 5448 5451 5454 5458 5462 5467 5468 5471 5481 5488 5491 5495 5495 5495 5496 5499 5500 5502 5502 5502 5502 5503 5502 5500 5499 5498 5496 5495 5490 5486 5483
5476 5472 5468 5465 5463 5461 5459 5457 5456 5455 5455 5456 5457 5458 5460 5463 5465 5466 5472 5482 5484 5483 5484 5488 5491 5491 5492 5492 5493 5494 5494 5497 5497 5496 5494 5493 5490 5487 5483 5480 5477 5470 5465
5479 5476 5473 5470 5467 5465 5463 5462 5461 5460 5459 5459 5460 5461 5463 5465 5469 5473 5476 5478 5479 5479 5483 5486 5483 5485 5487 5487 5488 5488 5489 5489 5487 5485 5483 5481 5478 5474 5470 5465 5460 5454 5447
5482 5479 5475 5474 5472 5470 5468 5467 5466 5465 5464 5465 5466 5466 5467 5469 5471 5472 5473 5473 5475 5479 5480 5481 5484 5483 5483 5484 5483 5482 5482 5480 5478 5475 5472 5468 5464 5460 5455 5449 5443 5437 5429
5483 5481 5479 5477 5475 5474 5473 5473 5472 5472 5472 5472 5472 5473 5473 5475 5476 5477 5478 5480 5481 5481 5481 5481 5480 5481 5480 5478 5476 5475 5473 5470 5467 5463 5459 5455 5450 5445 5441 5434 5427 5419 5410
5487 5485 5484 5483 5481 5480 5480 5479 5479 5478 5477 5477 5477 5477 5477 5478 5478 5478 5478 5478 5477 5477 5477 5477 5476 5473 5470 5469 5467 5464 5462 5458 5454 5450 5445 5440 5435 5429 5423 5416 5408 5400 5391
5492 5490 5489 5488 5487 5486 5485 5484 5483 5482 5481 5480 5479 5479 5478 5478 5477 5477 5476 5475 5475 5473 5471 5469 5468 5466 5463 5460 5457 5453 5449 5445 5440 5435 5429 5423 5417 5411 5404 5397 5389 5381 5372
5494 5493 5491 5490 5489 5488 5487 5485 5484 5483 5482 5481 5480 5479 5478 5477 5475 5474 5472 5471 5469 5467 5465 5462 5460 5456 5453 5449 5445 5441 5435 5430 5425 5418 5412 5405 5399 5393 5385 5377 5369 5361 5353
5494 5493 5492 5490 5489 5488 5487 5486 5484 5482 5481 5479 5478 5476 5474 5472 5470 5468 5466 5464 5461 5458 5455 5450 5447 5443 5439 5434 5429 5424 5419 5412 5406 5400 5393 5386 5379 5373 5366 5357 5348 5340 5331
5491 5490 5489 5487 5486 5485 5484 5482 5480 5478 5476 5474 5472 5470 5467 5463 5461 5458 5454 5450 5447 5444 5440 5437 5432 5426 5421 5416 5411 5406 5401 5395 5389 5382 5375 5368 5360 5352 5344 5337 5327 5318 5309
5489 5488 5486 5484 5481 5479 5476 5474 5473 5470 5468 5465 5462 5460 5457 5453 5449 5446 5443 5439 5434 5429 5424 5420 5414 5408 5403 5398 5393 5388 5382 5376 5369 5361 5354 5346 5339 5331 5323 5314 5306 5297 5288
5483 5481 5478 5476 5474 5472 5469 5467 5464 5460 5457 5454 5450 5446 5442 5439 5435 5430 5426 5421 5417 5413 5408 5403 5398 5392 5386 5380 5374 5368 5362 5355 5347 5339 5332 5325 5318 5309 5301 5293 5284 5275 5267
5472 5469 5467 5464 5462 5460 5457 5453 5450 5446 5443 5439 5435 5431 5427 5422 5418 5413 5408 5404 5399 5394 5390 5384 5379 5373 5367 5361 5354 5347 5339 5332 5325 5318 5311 5304 5296 5288 5280 5271 5262 5253 5245
5461 5458 5456 5453 5450 5446 5442 5438 5434 5429 5425 5421 5417 5413 5409 5404 5400 5395 5391 5386 5381 5377 5371 5366 5360 5353 5347 5340 5333 5325 5318 5310 5303 5296 5288 5281 5273 5265 5257 5249 5240 5231 5222
5449 5444 5440 5437 5434 5430 5426 5421 5416 5412 5407 5403 5399 5395 5390 5386 5381 5376 5371 5366 5361 5356 5350 5344 5338 5331 5324 5316 5309 5302 5294 5287 5280 5273 5265 5258 5250 5241 5233 5225 5216 5207 5197